Kerry Airport, Ireland

11:05 AM IST on June 28, 2017 (GMT +0100)
Farranfore

Weather History for EIKY - August, 2014

Change the Weather History Date:

Monday, August 18, 2014

  Actual Average (EINN) Record (EINN)
Temperature  
Mean Temperature 55 °F -  
Max Temperature 60 °F 66 °F 71 °F (1997)
Min Temperature 50 °F 54 °F 48 °F (1998)
Degree Days  
Heating Degree Days 10    
Growing Degree Days 5 (Base 50)    
Moisture  
Dew Point 49 °F    
Average Humidity 74    
Maximum Humidity 94    
Minimum Humidity 59    
Precipitation  
Precipitation 0.00 in - - ()
Sea Level Pressure  
Sea Level Pressure 30.05 in    
Wind  
Wind Speed 5 mph ()    
Max Wind Speed 10 mph    
Max Gust Speed -    
Visibility 6.2 miles    
Events Rain    
Averages and records for this station are not official NWS values.
T = Trace of Precipitation, MM = Missing Value Source: Averaged Metar Reports

Daily Weather History Graph

Daily Weather History Graph

Search for Another Location

Airport or City:

Trip Planner

Search our weather history database for the weather conditions in past years. The results will help you decide how hot, cold, wet, or windy it might be!

Date:

Astronomy

Aug. 18, 2014 Rise Set
Actual Time 6:26 AM IST 8:56 PM IST
Civil Twilight 5:48 AM IST 9:34 PM IST
Nautical Twilight 5:00 AM IST 10:21 PM IST
Astronomical Twilight 4:02 AM IST 11:18 PM IST
Moon 12:15 AM IST (8/18) 3:58 PM IST (8/18)
Length of Visible Light 15h 45m
Length of Day
14h 30m
Last Quarter, 40% of the Moon is Illuminated
Aug 18
Last Quarter
Aug 25
New
Sep 2
First Quarter
Sep 9
Full
Sep 16
Last Quarter

Hourly Weather History & Observations

Time (IST) Temp. Dew Point Humidity Pressure Visibility Wind Dir Wind Speed Gust Speed Precip Events Conditions
4:00 AM 50.0 °F 46.4 °F 87% 30.01 in 6.2 mi WSW 4.6 mph - N/A Rain Light Rain Showers
4:30 AM 51.8 °F 48.2 °F 88% 30.01 in 6.2 mi West 3.5 mph - N/A Rain Light Rain
7:30 AM 53.6 °F 51.8 °F 94% 30.01 in 6.2 mi NW 4.6 mph - N/A   Scattered Clouds
8:00 AM 53.6 °F 51.8 °F 94% 30.01 in 6.2 mi WNW 3.5 mph - N/A   Scattered Clouds
8:30 AM 55.4 °F 53.6 °F 94% 30.01 in 6.2 mi NW 3.5 mph - N/A   Mostly Cloudy
9:00 AM 55.4 °F 53.6 °F 94% 30.04 in 6.2 mi Variable 2.3 mph - N/A   Mostly Cloudy
9:30 AM 57.2 °F 51.8 °F 82% 30.04 in 6.2 mi NNW 3.5 mph - N/A   Mostly Cloudy
10:00 AM 59.0 °F 51.8 °F 77% 30.04 in 6.2 mi NNW 5.8 mph - N/A   Scattered Clouds
10:30 AM 59.0 °F 51.8 °F 77% 30.04 in 6.2 mi NNW 5.8 mph - N/A   Mostly Cloudy
11:00 AM 59.0 °F 51.8 °F 77% 30.06 in 6.2 mi North 8.1 mph - N/A   Mostly Cloudy
11:30 AM 60.8 °F 51.8 °F 72% 30.06 in 6.2 mi North 6.9 mph - N/A   Mostly Cloudy
12:30 PM 60.8 °F 50.0 °F 68% 30.06 in 6.2 mi NNW 10.4 mph - N/A   Scattered Clouds
1:00 PM 60.8 °F 50.0 °F 68% 30.06 in 6.2 mi North 10.4 mph - N/A   Scattered Clouds
1:30 PM 60.8 °F 48.2 °F 63% 30.06 in 6.2 mi NNW 8.1 mph - N/A   Scattered Clouds
2:00 PM 60.8 °F 50.0 °F 68% 30.06 in 6.2 mi NW 8.1 mph - N/A   Mostly Cloudy
3:30 PM 59.0 °F 48.2 °F 67% 30.06 in 6.2 mi NNW 9.2 mph - N/A   Scattered Clouds
4:00 PM 60.8 °F 48.2 °F 63% 30.06 in 6.2 mi NW 9.2 mph - N/A   Mostly Cloudy
4:30 PM 59.0 °F 46.4 °F 63% 30.06 in 6.2 mi NW 8.1 mph - N/A   Mostly Cloudy
5:00 PM 60.8 °F 48.2 °F 63% 30.06 in 6.2 mi NNW 9.2 mph - N/A   Mostly Cloudy
5:30 PM 59.0 °F 46.4 °F 63% 30.06 in 6.2 mi NW 8.1 mph - N/A   Partly Cloudy
6:30 PM 59.0 °F 44.6 °F 59% 30.06 in 6.2 mi NNW 9.2 mph - N/A   Mostly Cloudy
7:00 PM 59.0 °F 46.4 °F 63% 30.06 in 6.2 mi NNW 9.2 mph - N/A   Mostly Cloudy
7:30 PM 57.2 °F 44.6 °F 63% 30.06 in 6.2 mi NNW 6.9 mph - N/A   Scattered Clouds